This is the latest recevied weather packets stored in our database for station/object K4DNM. If no packets are shown the sender has not sent any weather packets the latest 10 day(s).
| Time | Temp. | Humidity | Pressure | Rain* | Wind** | Luminosity | Snow |
|---|---|---|---|---|---|---|---|
| 1778132957 | 19.44° C | 97% | 1010.5 hPa | 7.87 mm | - | 0 W/m² | - |
| 1778132656 | 19.44° C | 97% | 1010.3 hPa | 8.13 mm | - | 0 W/m² | - |
| 1778132357 | 19.44° C | 97% | 1010.3 hPa | 7.87 mm | - | 0 W/m² | - |
| 1778132055 | 19.44° C | 96% | 1010 hPa | 7.87 mm | - | 0 W/m² | - |
| 1778131754 | 19.44° C | 96% | 1011.6 hPa | 7.37 mm | - | 0 W/m² | - |
| 1778131453 | 19.44° C | 95% | 1012.2 hPa | 6.86 mm | - | 0 W/m² | - |
| 1778131213 | 19.44° C | 94% | 1012.2 hPa | 5.84 mm | - | 0 W/m² | - |
| 1778130853 | 19.44° C | 94% | 1012.2 hPa | 4.32 mm | - | 0 W/m² | - |
| 1778130614 | 19.44° C | 93% | 1012.3 hPa | 3.3 mm | - | 0 W/m² | - |
| 1778130252 | 20° C | 91% | 1012.5 hPa | 1.78 mm | - | 0 W/m² | - |
| 1778129950 | 20° C | 89% | 1012.2 hPa | 1.27 mm | - | 0 W/m² | - |
| 1778129651 | 20.56° C | 87% | 1012.1 hPa | 0.76 mm | - | 0 W/m² | - |
| 1778129352 | 20.56° C | 85% | 1011.8 hPa | 0.51 mm | - | 0 W/m² | - |
| 1778129111 | 20.56° C | 84% | 1011.7 hPa | 0.51 mm | - | 0 W/m² | - |
| 1778128752 | 20.56° C | 82% | 1011.5 hPa | 0.51 mm | - | 0 W/m² | - |
| 1778128452 | 21.11° C | 82% | 1011.5 hPa | 0.51 mm | - | 0 W/m² | - |
| 1778128151 | 21.11° C | 82% | 1011.7 hPa | 0.51 mm | - | 0 W/m² | - |
| 1778127852 | 21.67° C | 80% | 1011.5 hPa | 0.51 mm | - | 0 W/m² | - |
| 1778127613 | 21.67° C | 79% | 1011.6 hPa | 0.25 mm | - | 0 W/m² | - |
| 1778127253 | 22.22° C | 78% | 1011.8 hPa | 0.25 mm | - | 0 W/m² | - |
| 1778126949 | 22.22° C | 76% | 1011.4 hPa | 0.25 mm | - | 0 W/m² | - |
| 1778126651 | 22.78° C | 74% | 1011.3 hPa | 0.25 mm | - | 0 W/m² | - |
| 1778126424 | 22.78° C | 71% | 1010.9 hPa | 0 mm | - | 0 W/m² | - |
| 1778126054 | 22.78° C | 71% | 1010.8 hPa | 0 mm | - | 0 W/m² | - |
| 1778125750 | 22.78° C | 71% | 1010.8 hPa | 0 mm | - | 0 W/m² | - |
* Rain latest hour (hover to see other rain measurements)
** Current wind speed in m/s (hover to see current wind gust speed)